Overview Statistics Trail Chart Weather Telemetry Raw packets
 

This is the latest recevied weather packets stored in our database for station/object K1RFS. If no packets are shown the sender has not sent any weather packets the latest 10 day(s).

<< 77 78 79 80 81 82 83 >>
Time Temp. Humidity Pressure Rain* Wind** Luminosity Snow
1788136536 24.44° C 47% 1002.4 hPa 0 mm - 74 W/m² -
1788136232 25° C 46% 1002.8 hPa 0 mm - 109 W/m² -
1788135930 25.56° C 46% 1002.9 hPa 0 mm - 130 W/m² -
1788135626 25° C 47% 1002.8 hPa 0 mm - 136 W/m² -
1788135322 25.56° C 46% 1003 hPa 0 mm - 134 W/m² -
1788135017 25.56° C 45% 1002.9 hPa 0 mm - 155 W/m² -
1788134714 24.44° C 48% 1002.6 hPa 0 mm - 175 W/m² -
1788134412 25° C 47% 1002.6 hPa 0 mm - 60 W/m² -
1788134106 25° C 47% 1002.8 hPa 0 mm - 199 W/m² -
1788133801 24.44° C 48% 1002.4 hPa 0 mm - 60 W/m² -
1788133496 25.56° C 44% 1002.4 hPa 0 mm - 91 W/m² -
1788133192 25.56° C 44% 1002.5 hPa 0 mm - 284 W/m² -
1788132887 25° C 45% 1002.8 hPa 0 mm - 79 W/m² -
1788132583 25° C 46% 1002.8 hPa 0 mm - 101 W/m² -
1788132279 25° C 47% 1002.9 hPa 0 mm - 115 W/m² -
1788131975 25° C 47% 1002.9 hPa 0 mm - 99 W/m² -
1788131670 26.11° C 44% 1002.8 hPa 0 mm - 98 W/m² -
1788131369 27.78° C 40% 1002.6 hPa 0 mm - 390 W/m² -
1788131065 26.67° C 39% 1002.6 hPa 0 mm - 354 W/m² -
1788130764 26.11° C 43% 1002.6 hPa 0 mm - 279 W/m² -
1788130460 25° C 43% 1002.9 hPa 0 mm - 390 W/m² -
1788130154 24.44° C 44% 1002.6 hPa 0 mm - 211 W/m² -
1788129853 25° C 43% 1003 hPa 0 mm - 103 W/m² -
1788129550 25° C 46% 1002.9 hPa 0 mm - 110 W/m² -
1788129246 24.44° C 46% 1003 hPa 0 mm - 108 W/m² -

* Rain latest hour (hover to see other rain measurements)
** Current wind speed in m/s (hover to see current wind gust speed)